Location: Slanting_Bridge
(35.6330°N, 80.9830°W)
Time: 08:10:42
(UTC-04:00)

Hamsat - Visible Passes

Search period start: 30 August 2014 00:00
Search period end: 09 September 2014 00:00
Orbit: 595 x 628 km, 97.6° (Epoch: 30 August)

Date Brightness Start Highest point End Pass type
(mag) Time Alt. Az. Time Alt. Az. Time Alt. Az.
01 Sep ? 06:11:50 10° ENE 06:13:42 13° E 06:15:34 10° ESE visible
02 Sep ? 06:25:21 10° NE 06:28:25 19° E 06:31:27 10° SE visible
08 Sep ? 06:17:24 10° ENE 06:19:55 15° E 06:22:24 10° SE visible
